Location: Unspecified
(0.0000°N, 0.0000°E)
Time: 12:19:11
(UTC+02:00)

SJ-6B - Visible Passes

Search period start: 24 August 2016 00:00
Search period end: 03 September 2016 00:00
Orbit: 511 x 586 km, 97.8° (Epoch: 22 August)

Date Brightness Start Highest point End Pass type
(mag) Time Alt. Az. Time Alt. Az. Time Alt. Az.
24 Aug 5.6 21:45:21 10° SW 21:47:46 16° WSW 21:50:08 10° WNW visible
25 Aug 5.4 21:40:25 10° SSW 21:43:10 19° WSW 21:45:52 10° NW visible
26 Aug 5.2 21:35:33 10° SSW 21:38:33 22° WSW 21:41:30 10° NW visible
27 Aug 4.9 21:30:45 10° SSW 21:33:57 26° WSW 21:37:06 10° NW visible
28 Aug 4.6 21:25:58 10° SSW 21:29:20 31° WSW 21:32:39 10° NW visible
29 Aug 4.2 21:21:14 10° S 21:24:44 36° WSW 21:28:11 10° NW visible
30 Aug 3.8 21:16:30 10° S 21:20:07 44° WSW 21:23:40 10° NNW visible
31 Aug 3.4 21:11:49 10° S 21:15:30 53° WSW 21:19:08 10° NNW visible
01 Sep 3.1 21:07:10 10° S 21:10:53 65° WSW 21:14:34 10° NNW visible
02 Sep 2.7 21:02:31 10° S 21:06:16 79° WSW 21:09:58 10° NNW visible
